Simultaneous Nadir Overpasses (SNOs) Predictions

Prediction of SNOs over PacNW region [( 10.00, 139.50) to ( 22.70, 165.60)] between AQUA and NPP Satellites:

Table of predicted SNOs over PacNW region for the next 30.0 days since TLE Epoch: 3/24/2018
Index Date (AQUA) Time (AQUA) AQUA Lat,Lon Date (NPP) Time (NPP) NPP Lat,Lon Distance(km) Time Diff (sec)
1 03/24/2018 15:10:41 22.58, 159.83 03/24/2018 15:10:46 23.15, 157.27 269.21 5
2 04/01/2018 16:00:06 22.61, 147.48 04/01/2018 16:01:32 23.24, 144.60 303.13 86
3 04/09/2018 15:10:38 22.63, 159.85 04/09/2018 15:10:51 23.19, 157.26 272.27 13
4 04/17/2018 16:00:02 22.59, 147.49 04/17/2018 16:01:37 23.24, 144.58 306.99 95




NCC Satellite Simultaneous Nadir Overpasses (SNOs) Prediction Service
